カタログに戻る

STARLINK-32870

運用中通信VLEO
NORAD 63018·PAYLOAD·🇺🇸 United States

打ち上げ Feb 15, 2025 から Cape Canaveral Space Force Station

Loading…

次のパス (今後24時間)

TLE

最新Source: CelesTrak SupGP

元期: Sep 15, 2026, 03:06 UTC

1 63018C 25032P   26258.12965278  .00045860  00000+0  16610-2 0  2589
2 63018  43.0022 346.2674 0001444 262.6959  21.0909 15.27556101    10

AllMySatでSTARLINK-32870をリアルタイム追跡

Download on the App Store